Tracking 22779 objects as of 10-Apr-2021
HD Live streaming from Space Station
objects crossing your sky now

THOR BURNER 2 R/B

Track THOR BURNER 2 R/B now!
10-day predictions


NORAD ID: 3271
Int'l Code: 1968-042B
Perigee: 806.6 km
Apogee: 880.3 km
Inclination: 98.6 °
Period: 101.6 minutes
Semi major axis: 7214 km
RCS: 1.7124 m2 (large)
Launch date: May 23, 1968
Source: United States (US)
Launch site: AIR FORCE WESTERN TEST RANGE (AFWTR)

Note: This is a ROCKET BODY
aabbcc
Your satellite tracking list
Your tracking list is empty




NASA's NSSDC Master Catalog

Two Line Element Set (TLE):
1  3271U 68042B   21100.35173075  .00000019  00000-0  30618-4 0  9990
2  3271  98.6430 315.5539 0051080 241.5524 118.0499 14.16766117729070
Source of the keplerian elements: AFSPC